Weather History for Montevideo, MN

Change the Weather History Date:

Saturday, September 1, 2012

  Actual Average Record
Temperature  
Mean Temperature 70 °F -  
Max Temperature 86 °F 78 °F 93 °F (1960)
Min Temperature 53 °F 54 °F 36 °F (1974)
Cooling Degree Days 4    
Growing Degree Days 20 (Base 50)    
Moisture  
Dew Point 50 °F    
Average Humidity 54    
Maximum Humidity 77    
Minimum Humidity 25    
Precipitation  
Precipitation 0.00 in - - ()
Sea Level Pressure  
Sea Level Pressure 30.04 in    
Wind  
Wind Speed 7 mph (SSE)    
Max Wind Speed 16 mph    
Max Gust Speed 23 mph    
Visibility 10 miles    
Events      
Averages and records for this station are not official NWS values.
T = Trace of Precipitation, MM = Missing Value Source: NWS Daily Summary

Daily Weather History Graph

Daily Weather History Graph

Search for Another Location

Airport:

Trip Planner

Search our weather history database for the weather conditions in past years. The results will help you decide how hot, cold, wet, or windy it might be!

Date:

Astronomy

Sep. 01, 2012 Rise Set
Actual Time 6:45 AM CDT 7:58 PM CDT
Civil Twilight 6:15 AM CDT 8:29 PM CDT
Nautical Twilight 5:38 AM CDT 9:05 PM CDT
Astronomical Twilight 5:00 AM CDT 9:43 PM CDT
Moon 8:08 PM CDT (9/1) 8:00 AM CDT (9/1)
Length of Visible Light 14h 13m
Length of Day
13h 13m
Full, 99% of the Moon is Illuminated
Sep 1
Full
Sep 8
Last Quarter
Sep 15
New
Sep 22
First Quarter
Sep 29
Full

Hourly Weather History & Observations

Time (CDT) Temp. Heat Index Dew Point Humidity Pressure Visibility Wind Dir Wind Speed Gust Speed Precip Events Conditions
12:14 AM 60.8 °F - 48.2 °F 63% 30.09 in 10.0 mi SE 6.9 mph - N/A   Clear
12:34 AM 59.0 °F - 48.2 °F 67% 30.09 in 10.0 mi SE 6.9 mph - N/A   Clear
12:54 AM 57.2 °F - 48.2 °F 72% 30.08 in 10.0 mi SE 5.8 mph - N/A   Clear
1:14 AM 57.2 °F - 48.2 °F 72% 30.08 in 10.0 mi SE 4.6 mph - N/A   Clear
1:34 AM 57.2 °F - 48.2 °F 72% 30.09 in 10.0 mi ESE 5.8 mph - N/A   Clear
1:54 AM 55.4 °F - 48.2 °F 77% 30.09 in 10.0 mi ESE 3.5 mph - N/A   Clear
2:14 AM 55.4 °F - 48.2 °F 77% 30.09 in 10.0 mi ESE 4.6 mph - N/A   Clear
2:34 AM 55.4 °F - 48.2 °F 77% 30.09 in 10.0 mi ESE 3.5 mph - N/A   Clear
2:54 AM 53.6 °F - 46.4 °F 77% 30.09 in 10.0 mi ESE 5.8 mph - N/A   Clear
3:14 AM 53.6 °F - 46.4 °F 77% 30.09 in 10.0 mi ESE 4.6 mph - N/A   Clear
3:34 AM 53.6 °F - 46.4 °F 77% 30.09 in 10.0 mi ESE 4.6 mph - N/A   Clear
3:54 AM 55.4 °F - 46.4 °F 72% 30.09 in 10.0 mi SE 5.8 mph - N/A   Clear
4:14 AM 55.4 °F - 46.4 °F 72% 30.09 in 10.0 mi SE 4.6 mph - N/A   Clear
4:33 AM 55.4 °F - 46.4 °F 72% 30.08 in 10.0 mi SSE 4.6 mph - N/A   Clear
4:54 AM 55.4 °F - 46.4 °F 72% 30.08 in 10.0 mi SSE 4.6 mph - N/A   Clear
5:14 AM 55.4 °F - 46.4 °F 72% 30.08 in 10.0 mi SE 3.5 mph - N/A   Clear
5:34 AM 53.6 °F - 46.4 °F 77% 30.08 in 10.0 mi ESE 3.5 mph - N/A   Clear
5:54 AM 53.6 °F - 46.4 °F 77% 30.08 in 10.0 mi ESE 4.6 mph - N/A   Clear
6:14 AM 53.6 °F - 46.4 °F 77% 30.08 in 10.0 mi ESE 4.6 mph - N/A   Clear
6:34 AM 55.4 °F - 46.4 °F 72% 30.09 in 10.0 mi Calm Calm - N/A   Clear
6:53 AM 53.6 °F - 46.4 °F 77% 30.09 in 10.0 mi Calm Calm - N/A   Clear
7:14 AM 53.6 °F - 46.4 °F 77% 30.09 in 10.0 mi Calm Calm - N/A   Clear
7:34 AM 55.4 °F - 48.2 °F 77% 30.09 in 10.0 mi Calm Calm - N/A   Clear
7:54 AM 57.2 °F - 46.4 °F 67% 30.10 in 10.0 mi Calm Calm - N/A   Clear
8:14 AM 59.0 °F - 48.2 °F 67% 30.09 in 10.0 mi SSE 3.5 mph - N/A   Clear
8:34 AM 60.8 °F - 48.2 °F 63% 30.10 in 10.0 mi SSE 3.5 mph - N/A   Clear
8:54 AM 60.8 °F - 50.0 °F 68% 30.10 in 10.0 mi Calm Calm - N/A   Clear
9:14 AM 64.4 °F - 50.0 °F 59% 30.09 in 10.0 mi SSE 6.9 mph - N/A   Clear
9:34 AM 68.0 °F - 48.2 °F 49% 30.09 in 10.0 mi SSE 10.4 mph - N/A   Clear
9:54 AM 69.8 °F - 50.0 °F 49% 30.09 in 10.0 mi SSE 10.4 mph - N/A   Clear
10:14 AM 71.6 °F - 51.8 °F 50% 30.09 in 10.0 mi South 8.1 mph - N/A   Clear
10:34 AM 71.6 °F - 51.8 °F 50% 30.09 in 10.0 mi South 5.8 mph - N/A   Clear
10:54 AM 73.4 °F - 53.6 °F 50% 30.09 in 10.0 mi South 6.9 mph - N/A   Clear
11:14 AM 75.2 °F - 53.6 °F 47% 30.08 in 10.0 mi South 9.2 mph - N/A   Clear
11:34 AM 78.8 °F - 55.4 °F 44% 30.08 in 10.0 mi SSE 8.1 mph - N/A   Clear
11:54 AM 78.8 °F - 57.2 °F 47% 30.07 in 10.0 mi South 8.1 mph - N/A   Clear
12:14 PM 80.6 °F 80.5 °F 55.4 °F 42% 30.06 in 10.0 mi South 6.9 mph - N/A   Clear
12:34 PM 80.6 °F 80.5 °F 55.4 °F 42% 30.05 in 10.0 mi South 12.7 mph 16.1 mph N/A   Clear
12:54 PM 82.4 °F 82.0 °F 57.2 °F 42% 30.05 in 10.0 mi SSE 12.7 mph - N/A   Clear
1:14 PM 82.4 °F 81.7 °F 55.4 °F 39% 30.04 in 10.0 mi South 11.5 mph 18.4 mph N/A   Clear
1:34 PM 84.2 °F 83.0 °F 55.4 °F 37% 30.04 in 10.0 mi South 13.8 mph - N/A   Clear
1:54 PM 84.2 °F 83.0 °F 55.4 °F 37% 30.03 in 10.0 mi SSE 12.7 mph 18.4 mph N/A   Clear
2:14 PM 84.2 °F 82.8 °F 53.6 °F 35% 30.03 in 10.0 mi SSE 15.0 mph 19.6 mph N/A   Clear
2:34 PM 86.0 °F 84.5 °F 55.4 °F 35% 30.02 in 10.0 mi SSE 12.7 mph - N/A   Clear
3:14 PM 84.2 °F 82.8 °F 53.6 °F 35% 30.01 in 10.0 mi SSE 16.1 mph 21.9 mph N/A   Clear
3:34 PM 84.2 °F 82.8 °F 53.6 °F 35% 30.00 in 10.0 mi SSE 16.1 mph 23.0 mph N/A   Clear
3:54 PM 84.2 °F - 51.8 °F 33% 30.00 in 10.0 mi SSE 11.5 mph - N/A   Clear
4:14 PM 86.0 °F - 48.2 °F 27% 29.99 in 10.0 mi SSE 16.1 mph 20.7 mph N/A   Clear
4:34 PM 86.0 °F - 48.2 °F 27% 29.99 in 10.0 mi South 16.1 mph 20.7 mph N/A   Clear
5:14 PM 84.2 °F - 46.4 °F 27% 29.98 in 10.0 mi SSE 13.8 mph - N/A   Clear
5:34 PM 84.2 °F - 46.4 °F 27% 29.98 in 10.0 mi SSE 13.8 mph 20.7 mph N/A   Clear
5:54 PM 84.2 °F - 44.6 °F 25% 29.97 in 10.0 mi South 13.8 mph 20.7 mph N/A   Clear
6:14 PM 84.2 °F - 44.6 °F 25% 29.97 in 10.0 mi SSE 15.0 mph 19.6 mph N/A   Clear
6:34 PM 82.4 °F - 44.6 °F 26% 29.97 in 10.0 mi SSE 11.5 mph - N/A   Clear
6:54 PM 80.6 °F - 46.4 °F 30% 29.97 in 10.0 mi SE 10.4 mph - N/A   Clear
7:14 PM 78.8 °F - 48.2 °F 34% 29.97 in 10.0 mi SE 10.4 mph - N/A   Clear
7:34 PM 77.0 °F - 51.8 °F 41% 29.97 in 10.0 mi SE 10.4 mph - N/A   Clear
7:54 PM 75.2 °F - 51.8 °F 44% 29.97 in 10.0 mi SE 10.4 mph - N/A   Clear
8:14 PM 73.4 °F - 51.8 °F 47% 29.97 in 10.0 mi SSE 10.4 mph - N/A   Clear
8:34 PM 71.6 °F - 51.8 °F 50% 29.97 in 10.0 mi SSE 10.4 mph - N/A   Clear
8:54 PM 71.6 °F - 51.8 °F 50% 29.97 in 10.0 mi SSE 11.5 mph - N/A   Clear
9:14 PM 69.8 °F - 51.8 °F 53% 29.97 in 10.0 mi SSE 11.5 mph - N/A   Clear
9:34 PM 69.8 °F - 51.8 °F 53% 29.97 in 10.0 mi SSE 11.5 mph - N/A   Clear
9:54 PM 69.8 °F - 50.0 °F 49% 29.97 in 10.0 mi SSE 11.5 mph - N/A   Clear
10:14 PM 69.8 °F - 50.0 °F 49% 29.97 in 10.0 mi SSE 9.2 mph 16.1 mph N/A   Clear
10:34 PM 68.0 °F - 50.0 °F 52% 29.96 in 10.0 mi South 11.5 mph 16.1 mph N/A   Clear
10:54 PM 68.0 °F - 50.0 °F 52% 29.97 in 10.0 mi South 9.2 mph - N/A   Clear
11:14 PM 66.2 °F - 50.0 °F 56% 29.97 in 10.0 mi South 8.1 mph - N/A   Clear
11:54 PM 66.2 °F - 48.2 °F 52% 29.96 in 10.0 mi South 10.4 mph - N/A   Clear